Pililaau — NBWY — position and weather

sailwx.info

Track history (hours):
 
Tides and Currents Weather Stations Pressure Air Temp Water Temp Dewpoint Dewpoint Depression Visibility Wind Speed Wind Dir Waves Ship Positions

Pililaau

Last reported at 2016-Jul-03 13:30 UTC. Time now 2016-Jul-30 13:05 UTC.
Position N 36°58' W 076°25'.
Warning: this ship's position is 26 days out of date.

Type: Cargo ship. MMSI: 338806000.

Date/timePositionNaut miles runAvg speedWind from/ knotsBaromVisibWave heightAir tempDewpointWater temp
2016-Jul-03 13:30N 36°58' W 076°25'  
2016-Jun-27 14:33N 36°58' W 076°25'0 0.0
2016-Jun-27 13:33N 36°58' W 076°25'0 0.0
2016-Jun-27 12:33N 36°58' W 076°25'0 0.0
2016-Jun-27 11:33N 36°58' W 076°25'0 0.0
2016-Jun-27 10:31N 36°58' W 076°25'0 0.0
2016-Jun-27 09:33N 36°58' W 076°25'0 0.0
2016-Jun-27 08:33N 36°58' W 076°25'0 0.0
2016-Jun-27 07:10N 36°58' W 076°25'0 0.0
2016-Jun-27 06:31N 36°58' W 076°25'0 0.0
2016-Jun-27 05:25N 36°58' W 076°25'0 0.0
2016-Jun-26 06:32N 36°58' W 076°25'0 0.0
2016-Jun-26 04:28N 36°58' W 076°25'0 0.0
2016-Jun-26 02:30N 36°58' W 076°25'1 0.0
2016-Jun-25 14:06N 36°57' W 076°25'6 8.3
2016-Jun-25 13:22N 36°60' W 076°18'1012.1
2016-Jun-25 12:33N 36°58' W 076°06'2 2.0
2016-Jun-25 11:31N 36°57' W 076°04'0 0.1
2016-Jun-25 10:33N 36°57' W 076°04'0 0.1
2016-Jun-25 09:29N 36°57' W 076°04'0 0.1
2016-Jun-25 07:31N 36°57' W 076°04'0 0.0
2016-Jun-25 05:32N 36°57' W 076°04'0 0.0
2016-Jun-25 04:33N 36°57' W 076°04'0 0.0
2016-Jun-25 03:31N 36°57' W 076°04'0 0.0
2016-Jun-25 02:29N 36°57' W 076°04'0 0.2
2016-Jun-25 01:24N 36°57' W 076°04'0 0.1
2016-Jun-25 00:29N 36°57' W 076°04'0 0.0
2016-Jun-24 23:30N 36°57' W 076°04'0 0.0
2016-Jun-24 22:30N 36°57' W 076°04'0 0.0
2016-Jun-24 21:25N 36°57' W 076°04'0 0.1
2016-Jun-24 20:22N 36°57' W 076°04'0 0.3
2016-Jun-24 19:33N 36°57' W 076°04'0 0.1
2016-Jun-24 18:33N 36°57' W 076°04'7 7.5
2016-Jun-24 17:33N 36°55' W 075°55'1110.6
2016-Jun-24 16:33N 36°49' W 075°44'  
Track history (hours):
 
Tides and Currents Weather Stations Pressure Air Temp Water Temp Dewpoint Dewpoint Depression Visibility Wind Speed Wind Dir Waves Ship Positions

Pililaau

Last reported at 2016-Jul-03 13:30 UTC. Time now 2016-Jul-30 13:05 UTC.
Position N 36°58' W 076°25'.
Warning: this ship's position is 26 days out of date.

Type: Cargo ship. MMSI: 338806000.

Date/timePositionNaut miles runAvg speedWind from/ knotsBaromVisibWave heightAir tempDewpointWater temp
2016-Jul-03 13:30N 36°58' W 076°25'  
2016-Jun-27 14:33N 36°58' W 076°25'0 0.0
2016-Jun-27 13:33N 36°58' W 076°25'0 0.0
2016-Jun-27 12:33N 36°58' W 076°25'0 0.0
2016-Jun-27 11:33N 36°58' W 076°25'0 0.0
2016-Jun-27 10:31N 36°58' W 076°25'0 0.0
2016-Jun-27 09:33N 36°58' W 076°25'0 0.0
2016-Jun-27 08:33N 36°58' W 076°25'0 0.0
2016-Jun-27 07:10N 36°58' W 076°25'0 0.0
2016-Jun-27 06:31N 36°58' W 076°25'0 0.0
2016-Jun-27 05:25N 36°58' W 076°25'0 0.0
2016-Jun-26 06:32N 36°58' W 076°25'0 0.0
2016-Jun-26 04:28N 36°58' W 076°25'0 0.0
2016-Jun-26 02:30N 36°58' W 076°25'1 0.0
2016-Jun-25 14:06N 36°57' W 076°25'6 8.3
2016-Jun-25 13:22N 36°60' W 076°18'1012.1
2016-Jun-25 12:33N 36°58' W 076°06'2 2.0
2016-Jun-25 11:31N 36°57' W 076°04'0 0.1
2016-Jun-25 10:33N 36°57' W 076°04'0 0.1
2016-Jun-25 09:29N 36°57' W 076°04'0 0.1
2016-Jun-25 07:31N 36°57' W 076°04'0 0.0
2016-Jun-25 05:32N 36°57' W 076°04'0 0.0
2016-Jun-25 04:33N 36°57' W 076°04'0 0.0
2016-Jun-25 03:31N 36°57' W 076°04'0 0.0
2016-Jun-25 02:29N 36°57' W 076°04'0 0.2
2016-Jun-25 01:24N 36°57' W 076°04'0 0.1
2016-Jun-25 00:29N 36°57' W 076°04'0 0.0
2016-Jun-24 23:30N 36°57' W 076°04'0 0.0
2016-Jun-24 22:30N 36°57' W 076°04'0 0.0
2016-Jun-24 21:25N 36°57' W 076°04'0 0.1
2016-Jun-24 20:22N 36°57' W 076°04'0 0.3
2016-Jun-24 19:33N 36°57' W 076°04'0 0.1
2016-Jun-24 18:33N 36°57' W 076°04'7 7.5
2016-Jun-24 17:33N 36°55' W 075°55'1110.6
2016-Jun-24 16:33N 36°49' W 075°44'  

Dump ship's entire track history